This demonstration page uses our WeatherBlox Daily Observations layout. Learn more.

Left ArrowRight Arrow

39.08367, -84.50855

Hourly Observations for March 4, 2016

Temp ( °F °C ) Dew Point ( °F °C ) Humidity (%) Winds ( mph kmh ) Pressure ( in mb ) Visibility ( mi km ) Precip ( " mm )
12:28 am 00:28 Cloudy 34 1 34 1 100 100 SSW 5 7 30.03 1017 8 12.87472 N/A
12:51 am 00:51 Cloudy 34 1 34 1 100 100 SSW 5 7 30.06 1018 9 14.48406 N/A
12:53 am 00:53 Cloudy 34 1.1 33 0.6 97 97 SW 5 7 30.06 1018 10 16.0934 N/A
1:19 am 01:19 Cloudy 34 1.1 33 0.6 97 97 SSW 5 7 30.06 1018 9 14.48406 N/A
1:53 am 01:53 Cloudy 34 1.1 33 0.6 97 97 SW 5 7 30.07 1018 10 16.0934 N/A
2:53 am 02:53 Cloudy with Light Rain 34 1.1 34 1.1 100 100 SSW 5 7 30.05 1018 6 9.65604 0.01 0.254
3:53 am 03:53 Cloudy with Light Rain 34 1.1 34 1.1 100 100 S 5 7 30.05 1018 6 9.65604 0.01 0.254
4:53 am 04:53 Cloudy with Light Rain 35 1.7 34 1.1 96 96 N N/A 30.06 1018 6 9.65604 N/A
5:37 am 05:37 Cloudy with Light Rain 36 2.2 34 1.1 93 93 W 6 9 30.06 1018 9 14.48406 0.01 0.254
5:53 am 05:53 Cloudy with Light Rain 36 2.2 34 1.1 93 93 W 6 9 30.08 1019 10 16.0934 0.01 0.254
6:24 am 06:24 Cloudy 36 2 34 1 93 93 NW 5 7 30.09 1019 9 14.48406 N/A
6:53 am 06:53 Cloudy 36 2.2 34 1.1 93 93 NW 6 9 30.1 1019 10 16.0934 N/A
7:53 am 07:53 Cloudy 36 2.2 34 1.1 93 93 N 7 11 30.12 1020 10 16.0934 N/A
8:53 am 08:53 Cloudy with Mist and Fog 35 1.7 32 undefined 89 89 N 10 17 30.16 1021 5 8.0467 N/A
9:53 am 09:53 Cloudy with Mist and Fog 35 1.7 32 undefined 89 89 NNW 13 20 30.18 1022 4 6.43736 N/A
10:53 am 10:53 Cloudy with Mist and Fog 35 1.7 32 undefined 89 89 N 10 17 30.2 1023 4 6.43736 N/A
11:53 am 11:53 Cloudy with Haze 36 2.2 30 -1.1 79 79 N 8 13 30.2 1023 6 9.65604 N/A
12:53 pm 12:53 Cloudy 37 2.8 31 -0.6 79 79 NNW 8 13 30.21 1023 8 12.87472 N/A
1:53 pm 13:53 Cloudy 36 2.2 29 -1.7 76 76 W 8 13 30.21 1023 8 12.87472 N/A
2:53 pm 14:53 Cloudy 36 2.2 29 -1.7 76 76 W 8 13 30.21 1023 8 12.87472 N/A
3:53 pm 15:53 Cloudy 36 2.2 28 -2.2 73 73 WNW 5 7 30.22 1023 10 16.0934 N/A
4:53 pm 16:53 Cloudy 36 2.2 27 -2.8 70 70 WSW 3 6 30.22 1023 10 16.0934 N/A
5:53 pm 17:53 Cloudy 36 2.2 27 -2.8 70 70 N N/A 30.22 1023 10 16.0934 N/A
6:53 pm 18:53 Cloudy 35 1.7 29 -1.7 78 78 S 5 7 30.22 1023 10 16.0934 N/A
7:53 pm 19:53 Cloudy 35 1.7 28 -2.2 76 76 SSE 6 9 30.21 1023 10 16.0934 N/A
8:53 pm 20:53 Cloudy 33 0.6 28 -2.2 82 82 SSE 5 7 30.2 1023 10 16.0934 N/A
9:53 pm 21:53 Cloudy 33 0.6 30 -1.1 89 89 N N/A 30.21 1023 10 16.0934 N/A
9:55 pm 21:55 Cloudy 34 1.1 30 -1.1 85 85 S 3 6 30.24 1024 10 16.0934 N/A
10:53 pm 22:53 Clear 32 undefined 29 -1.7 88 88 N N/A 30.21 1023 8 12.87472 N/A
11:53 pm 23:53 Clear with Mist and Fog 30 -1.1 29 -1.7 96 96 N N/A 30.2 1023 5 8.0467 N/A

Powered by AerisWeather